Grand Canyon, AZ

1:13 PM MST on June 23, 2017 (GMT -0700)
Grand Canyon National Park

Weather History for KGCN - February, 2014

Change the Weather History Date:

Sunday, February 2, 2014

  Actual Average Record
Temperature  
Mean Temperature 18 °F -  
Max Temperature 36 °F 42 °F 57 °F (2015)
Min Temperature 0 °F 14 °F -20 °F (1985)
Degree Days  
Heating Degree Days 47    
Moisture  
Dew Point 9 °F    
Average Humidity 62    
Maximum Humidity 84    
Minimum Humidity 39    
Precipitation  
Precipitation 0.00 in - - ()
Sea Level Pressure  
Sea Level Pressure 30.10 in    
Wind  
Wind Speed 6 mph (SSW)    
Max Wind Speed 18 mph    
Max Gust Speed 24 mph    
Visibility 10 miles    
Events      
Averages and records for this station are not official NWS values.
T = Trace of Precipitation, MM = Missing Value Source: NWS Daily Summary

Daily Weather History Graph

Daily Weather History Graph

Search for Another Location

Airport or City:

Trip Planner

Search our weather history database for the weather conditions in past years. The results will help you decide how hot, cold, wet, or windy it might be!

Date:

Astronomy

Feb. 02, 2014 Rise Set
Actual Time 7:28 AM MST 5:56 PM MST
Civil Twilight 7:01 AM MST 6:23 PM MST
Nautical Twilight 6:30 AM MST 6:54 PM MST
Astronomical Twilight 6:00 AM MST 7:24 PM MST
Moon 9:04 AM MST (2/2) 9:36 PM MST (2/2)
Length of Visible Light 11h 22m
Length of Day
10h 28m
Waxing Crescent, 12% of the Moon is Illuminated
Feb 2
Waxing Crescent
Feb 6
First Quarter
Feb 14
Full
Feb 22
Last Quarter
Mar 1
New

Hourly Weather History & Observations

Time (MST) Temp. Windchill Dew Point Humidity Pressure Visibility Wind Dir Wind Speed Gust Speed Precip Events Conditions
12:54 AM 3.0 °F -6.4 °F -0.9 °F 84% 30.13 in 10.0 mi ENE 4.6 mph - N/A   Clear
1:54 AM 1.9 °F -9.2 °F -2.9 °F 80% 30.13 in 10.0 mi NE 5.8 mph - N/A   Clear
2:54 AM 1.0 °F - -4.0 °F 79% 30.17 in 10.0 mi Calm Calm - N/A   Clear
3:54 AM -0.0 °F - -4.0 °F 83% 30.15 in 10.0 mi Calm Calm - N/A   Clear
4:54 AM 1.9 °F - -2.0 °F 83% 30.13 in 10.0 mi Calm Calm - N/A   Clear
5:54 AM 1.9 °F -5.6 °F -2.0 °F 83% 30.18 in 10.0 mi NE 3.5 mph - N/A   Clear
6:54 AM 1.9 °F -9.2 °F -2.0 °F 83% 30.24 in 10.0 mi ENE 5.8 mph - N/A   Clear
7:54 AM 1.9 °F -9.2 °F -2.0 °F 83% 30.24 in 10.0 mi ENE 5.8 mph - N/A   Clear
8:54 AM 15.1 °F - 10.0 °F 80% 30.19 in 10.0 mi Calm Calm - N/A   Clear
9:54 AM 28.0 °F 20.8 °F 16.0 °F 61% 30.13 in 10.0 mi SE 6.9 mph - N/A   Clear
10:54 AM 30.9 °F 23.5 °F 15.1 °F 52% 30.14 in 10.0 mi South 8.1 mph - N/A   Clear
11:54 AM 33.1 °F 23.0 °F 14.0 °F 46% 30.12 in 10.0 mi SW 15.0 mph 19.6 mph N/A   Clear
12:54 PM 32.0 °F 22.5 °F 14.0 °F 48% 30.11 in 10.0 mi SW 12.7 mph - N/A   Scattered Clouds
1:54 PM 34.0 °F 23.8 °F 14.0 °F 44% 30.07 in 10.0 mi SSW 16.1 mph 24.2 mph N/A   Partly Cloudy
2:54 PM 36.0 °F 26.3 °F 12.9 °F 39% 30.04 in 10.0 mi SW 16.1 mph 23.0 mph N/A   Partly Cloudy
3:54 PM 36.0 °F 25.6 °F 12.9 °F 39% 30.05 in 10.0 mi SW 18.4 mph 23.0 mph N/A   Clear
4:54 PM 35.1 °F 28.6 °F 14.0 °F 42% 30.04 in 10.0 mi WSW 8.1 mph - N/A   Overcast
5:54 PM 32.0 °F 28.7 °F 12.9 °F 45% 30.06 in 10.0 mi SW 3.5 mph - N/A   Mostly Cloudy
6:54 PM 32.0 °F 24.8 °F 14.0 °F 48% 30.06 in 10.0 mi SW 8.1 mph - N/A   Overcast
7:54 PM 30.9 °F 25.2 °F 15.1 °F 52% 30.06 in 10.0 mi SW 5.8 mph - N/A   Overcast
8:54 PM 30.9 °F 25.2 °F 15.1 °F 52% 30.01 in 10.0 mi SW 5.8 mph - N/A   Overcast
9:54 PM 30.0 °F 26.5 °F 16.0 °F 56% 29.96 in 10.0 mi SW 3.5 mph - N/A   Overcast
10:54 PM 28.9 °F - 16.0 °F 58% 29.95 in 10.0 mi Calm Calm - N/A   Overcast
11:54 PM 26.1 °F - 18.0 °F 71% 29.94 in 10.0 mi Calm Calm - N/A   Overcast